OIDAA LOXZ-ZZZZ

Flight info

Callsign OIDAA
Flight time N/A
Altitude 35000
Route /
Aircraft EUFI/M-V/N

Departure

Time 2026-04-12 12:03
Airport Hinterstoisser Air Base (LOXZ)

Arrival

Time N/A
Airport ZZZZ
Time Latitude Longitude Altitude Speed Heading
2026-04-12 11:59 47.20356 14.75999 2226 ft 0 kts 351°
2026-04-12 11:59 47.20414 14.75740 2207 ft 0 kts 261°
2026-04-12 12:03 47.20412 14.75725 2207 ft 23 kts 262°
2026-04-12 12:03 47.20270 14.74292 2334 ft 258 kts 262°
2026-04-12 12:03 47.19873 14.70379 3239 ft 516 kts 261°
2026-04-12 12:03 47.20507 14.64691 6675 ft 595 kts 311°
2026-04-12 12:04 47.23195 14.60473 15636 ft 561 kts 313°
2026-04-12 12:04 47.25840 14.56618 25517 ft 499 kts 314°
2026-04-12 12:04 47.28210 14.53498 35804 ft 409 kts 319°
2026-04-12 12:04 47.30456 14.50797 43289 ft 475 kts 317°
2026-04-12 12:05 47.33147 14.47419 43738 ft 537 kts 318°
2026-04-12 12:05 47.36110 14.43689 44040 ft 596 kts 318°
2026-04-12 12:05 47.39491 14.39411 44583 ft 646 kts 318°
2026-04-12 12:05 47.42983 14.34975 45150 ft 688 kts 318°
2026-04-12 12:06 47.46718 14.30206 45841 ft 725 kts 318°
2026-04-12 12:06 47.49465 14.26685 46392 ft 748 kts 318°
2026-04-12 12:06 47.53451 14.21558 47238 ft 777 kts 317°
2026-04-12 12:06 47.57637 14.16151 48173 ft 803 kts 317°
2026-04-12 12:07 47.61951 14.10564 49189 ft 833 kts 317°
2026-04-12 12:07 47.66375 14.04819 50280 ft 864 kts 317°
2026-04-12 12:07 47.70991 13.98811 51475 ft 898 kts 317°
2026-04-12 12:07 47.75781 13.92563 52782 ft 928 kts 317°
2026-04-12 12:08 47.80772 13.86035 54197 ft 952 kts 317°
2026-04-12 12:08 47.85860 13.79367 55569 ft 971 kts 317°
2026-04-12 12:08 47.91073 13.72529 54351 ft 934 kts 317°
2026-04-12 12:08 47.96165 13.65450 44385 ft 1087 kts 315°
2026-04-12 12:09 48.01849 13.57136 39505 ft 1189 kts 314°
2026-04-12 12:09 48.07577 13.48070 37124 ft 1213 kts 309°
2026-04-12 12:09 48.12748 13.38108 34782 ft 1237 kts 304°
2026-04-12 12:09 48.17722 13.27632 36024 ft 1221 kts 305°
2026-04-12 12:10 48.22701 13.17473 39479 ft 1199 kts 305°
2026-04-12 12:10 48.27668 13.07297 42870 ft 1183 kts 305°
2026-04-12 12:10 48.32455 12.97453 46424 ft 1169 kts 305°
2026-04-12 12:10 48.37293 12.87476 49914 ft 1155 kts 305°
2026-04-12 12:11 48.42058 12.77626 53420 ft 1140 kts 305°
2026-04-12 12:11 48.46502 12.67842 55924 ft 1129 kts 289°
2026-04-12 12:11 48.46770 12.56174 52522 ft 1146 kts 259°
2026-04-12 12:11 48.45054 12.44204 48823 ft 1189 kts 257°
2026-04-12 12:12 48.42988 12.32060 45041 ft 1228 kts 255°
2026-04-12 12:12 48.40858 12.19318 40933 ft 1261 kts 256°
2026-04-12 12:12 48.38886 12.06511 37143 ft 1219 kts 257°
2026-04-12 12:12 48.37212 11.95039 33754 ft 1052 kts 258°
2026-04-12 12:13 48.35848 11.85085 30760 ft 891 kts 257°
2026-04-12 12:13 48.34589 11.76824 25621 ft 724 kts 256°
2026-04-12 12:13 48.33591 11.69774 18202 ft 661 kts 258°
2026-04-12 12:13 48.32934 11.63343 13388 ft 582 kts 263°
2026-04-12 12:14 48.32571 11.57593 10347 ft 526 kts 264°
2026-04-12 12:14 48.32341 11.52149 9161 ft 555 kts 266°
2026-04-12 12:14 48.32105 11.45873 12221 ft 623 kts 267°
2026-04-12 12:14 48.31870 11.39260 13799 ft 631 kts 266°
2026-04-12 12:15 48.31531 11.32058 15390 ft 751 kts 266°
2026-04-12 12:15 48.31314 11.23804 16694 ft 836 kts 268°
2026-04-12 12:15 48.31141 11.14638 18269 ft 913 kts 269°
2026-04-12 12:15 48.30996 11.04598 20026 ft 1000 kts 269°
2026-04-12 12:16 48.30873 10.93941 21903 ft 1049 kts 269°
2026-04-12 12:16 48.30718 10.83073 23838 ft 1063 kts 267°
2026-04-12 12:16 48.29838 10.71933 27254 ft 1047 kts 259°
2026-04-12 12:16 48.28365 10.62124 30821 ft 1052 kts 255°
2026-04-12 12:17 48.26281 10.51343 34882 ft 1078 kts 253°
2026-04-12 12:17 48.24063 10.40568 38489 ft 1089 kts 252°
2026-04-12 12:17 48.21839 10.30326 38540 ft 968 kts 247°
2026-04-12 12:17 48.18993 10.21723 37533 ft 864 kts 242°
2026-04-12 12:18 48.16367 10.14150 35493 ft 771 kts 240°
2026-04-12 12:18 48.14315 10.07196 29395 ft 708 kts 257°
2026-04-12 12:18 48.13724 10.00105 22646 ft 681 kts 268°
2026-04-12 12:18 48.14651 9.94393 25773 ft 514 kts 288°
2026-04-12 12:19 48.14783 9.89412 23753 ft 465 kts 246°
2026-04-12 12:19 48.12579 9.86979 22049 ft 383 kts 167°
2026-04-12 12:19 48.11303 9.89367 20794 ft 295 kts 59°
2026-04-12 12:19 48.12832 9.90137 19437 ft 248 kts 326°
2026-04-12 12:20 48.13767 9.88311 17745 ft 263 kts 279°
2026-04-12 12:20 48.13528 9.85401 16114 ft 285 kts 248°
2026-04-12 12:20 48.12187 9.82974 14022 ft 333 kts 206°
2026-04-12 12:20 48.09814 9.82134 11608 ft 362 kts 182°
2026-04-12 12:21 48.07259 9.82531 9404 ft 369 kts 164°
2026-04-12 12:21 48.05233 9.83457 10827 ft 267 kts 162°
2026-04-12 12:21 48.03540 9.84359 10284 ft 251 kts 160°
2026-04-12 12:21 48.01934 9.85224 9507 ft 241 kts 160°
2026-04-12 12:22 48.00425 9.86236 8727 ft 232 kts 151°
2026-04-12 12:22 47.99525 9.87062 8233 ft 227 kts 146°
2026-04-12 12:22 47.97936 9.88990 7263 ft 218 kts 136°
2026-04-12 12:22 47.96925 9.90630 6542 ft 212 kts 129°
2026-04-12 12:23 47.96082 9.92404 5829 ft 207 kts 122°
2026-04-12 12:23 47.95361 9.94253 5145 ft 204 kts 118°
2026-04-12 12:23 47.94941 9.95522 4671 ft 200 kts 114°
2026-04-12 12:23 47.94695 9.97338 4327 ft 176 kts 84°
2026-04-12 12:24 47.94963 9.99097 3509 ft 179 kts 74°
2026-04-12 12:24 47.95265 10.00840 3075 ft 169 kts 77°
2026-04-12 12:24 47.95517 10.02597 2858 ft 179 kts 78°
2026-04-12 12:24 47.95800 10.04420 2818 ft 178 kts 75°
2026-04-12 12:25 47.96125 10.06170 2826 ft 176 kts 75°